sat.trackr.live / text

‹ back to catalog

GSAT0233 (GALILEO 33)

NORAD 67160 · 2025-302A

PAYLOAD ACTIVE UNKNOWN

§ Identity

Operator
Country
ESA
Launch date
2025-12-17
Launch site
FRGUI
Launch vehicle
Mass (kg)
RCS (m²)

Purposes: earth_obs, nav

External: N2YO · Heavens-Above · Gunter

§ Orbital elements

Epoch: 2026-09-17T14:49:21.190368Z

Period
844.70 min
Inclination
54.3946°
Eccentricity
0.0003056
Mean motion
1.70474424 rev/d
Perigee alt
23,213.1 km
Apogee alt
23,231.2 km
Semi-major
29,600.3 km
B*
0.0000e+0
RAAN
99.4961°
Arg perigee
142.0392°
Mean anomaly
221.3345°
Rev number
470

§ Raw data

GSAT0233 (GALILEO 33)1 67160U 25302A   26260.61760637  .00000008  00000+0  00000+0 0  99902 67160  54.3946  99.4961 0003056 142.0392 221.3345  1.70474424  4700

JSON: /api/v1/satellites/67160 · /tle

For live sub-satellite position, see the globe view (requires WebGL).

§ Visibility from observer

Set your observer location to see the next 7 days of passes ≥ 10°. The values pass through the URL so the page stays shareable.

No JS? Fill the form by hand. The geolocation button needs JavaScript.